Date String (YYYY-MM-DD hh:mm:ss) UTC,Instrument flags,absolute air pressure of the measurement (hPa),sample flow rate (lpm),inlet stack bypass flow (lpm),air temperature of the measurement (°C),ambient temperature measured by the external sensor (°C),aerosol sample conditioner tube jacket temperature (°C),OPC LED temperature (°C),internal box temperature (°C),relative humidity of the measurement (%),span deviation,mass concentration of particles derived from Lorenz-Mie calculation of OPC scattering (μg/m³),mass concentration of particles derived from Lorenz-Mie calculation of OPC scattering (μg/m³),mass concentration of particles derived from Lorenz-Mie calculation of OPC scattering (μg/m³)
DateTimeUTC,F1_M11,P_M11,Q1_M11,Q2_M11,T1_M11,T2_M11,T3_M11,T4_M11,T5_M11,U1_M11,ZSPAN_M11,X0_M11,X2_M11,X1_M11
2024-04-15 09:00:00,SystemResetWarning,0819.4,5.01,000.00,026.5,025.7,000.0,035.0,028.3,006.9,0000.0,0007.60,0002.88,0001.71
2024-04-15 09:01:00,SystemResetWarning,0819.4,5.01,000.00,026.5,025.7,000.0,035.0,028.3,006.8,0000.0,0007.51,0002.86,0001.72
2024-04-15 09:02:00,SystemResetWarning,0819.4,5.00,000.00,026.5,025.7,000.0,035.0,028.3,006.7,0000.0,0007.75,0002.85,0001.73
2024-04-15 09:03:00,SystemResetWarning,0819.4,5.00,000.00,026.5,025.7,000.0,035.0,028.3,006.7,0000.0,0008.02,0002.85,0001.73
2024-04-15 09:04:00,SystemResetWarning,0819.4,5.00,000.00,026.5,025.7,000.0,035.0,028.3,006.6,0000.0,0008.17,0002.85,0001.73
2024-04-15 09:05:00,SystemResetWarning,0819.4,4.99,000.00,026.5,025.7,000.0,035.0,028.3,006.6,0000.0,0008.20,0002.84,0001.74
2024-04-15 09:06:00,SystemResetWarning,0819.4,4.99,000.00,026.5,025.7,000.0,035.0,028.3,006.7,0000.0,0008.18,0002.79,0001.72
2024-04-15 09:07:00,SystemResetWarning,0819.4,5.00,000.00,026.5,025.7,000.0,035.0,028.3,006.8,0000.0,0008.13,0002.73,0001.71
2024-04-15 09:08:00,SystemResetWarning,0819.4,5.00,000.00,026.5,025.7,000.0,035.0,028.3,007.2,0000.0,0007.66,0002.72,0001.70
2024-04-15 09:09:00,SystemResetWarning,0819.5,5.00,000.00,026.5,025.7,000.0,035.0,028.3,007.3,0000.0,0007.32,0002.71,0001.70
2024-04-15 09:10:00,SystemResetWarning,0819.4,5.00,000.00,026.5,025.7,000.0,035.0,028.3,007.4,0000.0,0005.97,0002.68,0001.71
2024-04-15 09:11:00,SystemResetWarning,0819.3,5.00,000.00,026.5,025.7,000.0,035.0,028.3,007.6,0000.0,0006.17,0002.73,0001.73
2024-04-15 09:12:00,SystemResetWarning,0819.3,5.00,000.00,026.5,025.7,000.0,035.0,028.3,007.7,0000.0,0006.80,0002.75,0001.75
2024-04-15 09:13:00,SystemResetWarning,0819.4,5.01,000.00,026.5,025.7,000.0,034.9,028.3,007.6,0000.0,0006.92,0002.81,0001.78
2024-04-15 09:14:00,SystemResetWarning,0819.4,4.99,000.00,026.5,025.7,000.0,034.9,028.3,007.3,0000.0,0006.48,0002.81,0001.79
2024-04-15 09:15:00,SystemResetWarning,0819.3,5.00,000.00,026.5,025.7,000.0,034.9,028.2,007.6,0000.0,0006.19,0002.77,0001.80
2024-04-15 09:16:00,SystemResetWarning,0819.3,4.99,000.00,026.5,025.7,000.0,034.9,028.2,007.6,0000.0,0006.24,0002.78,0001.82
2024-04-15 09:17:00,SystemResetWarning,0819.3,5.00,000.00,026.4,025.6,000.0,034.9,028.2,007.1,0000.0,0006.24,0002.80,0001.83
2024-04-15 09:18:00,SystemResetWarning,0819.3,5.00,000.00,026.4,025.6,000.0,034.9,028.2,007.0,0000.0,0006.33,0002.82,0001.84
2024-04-15 09:19:00,SystemResetWarning,0819.3,5.01,000.00,026.4,025.6,000.0,034.9,028.2,006.9,0000.0,0006.44,0002.83,0001.85
2024-04-15 09:20:00,SystemResetWarning,0819.3,5.00,000.00,026.4,025.6,000.0,034.9,028.2,006.8,0000.0,0006.99,0002.84,0001.86
2024-04-15 09:21:00,SystemResetWarning,0819.3,5.01,000.00,026.4,025.6,000.0,034.9,028.2,007.0,0000.0,0007.13,0002.84,0001.84
2024-04-15 09:22:00,SystemResetWarning,0819.3,5.00,000.00,026.4,025.5,000.0,034.9,028.1,006.8,0000.0,0007.19,0002.84,0001.83
2024-04-15 09:23:00,SystemResetWarning,0819.3,4.99,000.00,026.4,025.5,000.0,034.9,028.2,007.0,0000.0,0006.59,0002.80,0001.80
2024-04-15 09:24:00,SystemResetWarning,0819.3,4.99,000.00,026.4,025.5,000.0,034.9,028.1,007.0,0000.0,0006.29,0002.73,0001.75
2024-04-15 09:25:00,SystemResetWarning,0819.3,5.01,000.00,026.4,025.5,000.0,034.9,028.1,007.1,0000.0,0006.38,0002.73,0001.73
2024-04-15 09:26:00,SystemResetWarning,0819.3,5.00,000.00,026.4,025.5,000.0,034.9,028.1,007.1,0000.0,0007.01,0002.74,0001.71
2024-04-15 09:27:00,SystemResetWarning,0819.3,5.00,000.00,026.3,025.5,000.0,034.9,028.1,006.8,0000.0,0006.88,0002.72,0001.68
2024-04-15 09:28:00,SystemResetWarning,0819.3,5.01,000.00,026.3,025.5,000.0,034.9,028.1,006.9,0000.0,0006.75,0002.68,0001.67
2024-04-15 09:29:00,SystemResetWarning,0819.3,5.00,000.00,026.3,025.5,000.0,034.8,028.1,006.8,0000.0,0006.66,0002.66,0001.65
2024-04-15 09:30:00,SystemResetWarning,0819.3,4.99,000.00,026.3,025.5,000.0,034.8,028.1,006.5,0000.0,0006.76,0002.69,0001.65
2024-04-15 09:31:00,SystemResetWarning,0819.3,4.99,000.00,026.3,025.5,000.0,034.8,028.1,006.4,0000.0,0006.36,0002.61,0001.62
2024-04-15 09:32:00,SystemResetWarning,0819.3,5.00,000.00,026.3,025.5,000.0,034.8,028.1,006.5,0000.0,0007.62,0002.54,0001.59
2024-04-15 09:33:00,SystemResetWarning,0819.2,5.00,000.00,026.3,025.5,000.0,034.8,028.1,006.4,0000.0,0007.69,0002.48,0001.57
2024-04-15 09:34:00,SystemResetWarning,0819.3,5.01,000.00,026.3,025.4,000.0,034.8,028.1,006.5,0000.0,0007.72,0002.44,0001.55
2024-04-15 09:35:00,SystemResetWarning,0819.2,5.00,000.00,026.3,025.4,000.0,034.8,028.0,006.5,0000.0,0007.67,0002.44,0001.53
2024-04-15 09:36:00,SystemResetWarning,0819.2,5.00,000.00,026.3,025.4,000.0,034.8,028.0,006.4,0000.0,0007.51,0002.38,0001.53
2024-04-15 09:37:00,SystemResetWarning,0819.1,5.00,000.00,026.2,025.4,000.0,034.8,028.0,006.4,0000.0,0006.86,0002.35,0001.52
2024-04-15 09:38:00,SystemResetWarning,0819.1,4.99,000.00,026.2,025.4,000.0,034.8,028.0,006.3,0000.0,0007.38,0002.33,0001.49
2024-04-15 09:39:00,SystemResetWarning,0819.2,5.00,000.00,026.2,025.4,000.0,034.8,028.0,006.5,0000.0,0007.70,0002.34,0001.48
2024-04-15 09:40:00,SystemResetWarning,0819.1,5.00,000.00,026.2,025.4,000.0,034.7,028.0,006.6,0000.0,0007.70,0002.34,0001.47
2024-04-15 09:41:00,SystemResetWarning,0819.1,5.00,000.00,026.2,025.4,000.0,034.7,028.0,006.4,0000.0,0007.78,0002.26,0001.47
2024-04-15 09:42:00,SystemResetWarning,0819.0,5.00,000.00,026.2,025.4,000.0,034.7,028.0,006.1,0000.0,0007.87,0002.28,0001.47
2024-04-15 09:43:00,SystemResetWarning,0819.0,4.99,000.00,026.2,025.4,000.0,034.7,028.0,006.1,0000.0,0007.41,0002.31,0001.47
2024-04-15 09:44:00,SystemResetWarning,0819.0,5.00,000.00,026.2,025.4,000.0,034.7,028.0,006.1,0000.0,0007.21,0002.30,0001.46
2024-04-15 09:45:00,SystemResetWarning,0819.0,5.00,000.00,026.2,025.4,000.0,034.7,028.0,006.1,0000.0,0007.14,0002.25,0001.45
2024-04-15 09:46:00,SystemResetWarning,0819.0,5.00,000.00,026.2,025.4,000.0,034.7,028.0,006.2,0000.0,0007.24,0002.17,0001.45
2024-04-15 09:47:00,SystemResetWarning,0819.0,5.00,000.00,026.2,025.4,000.0,034.7,028.0,006.3,0000.0,0007.14,0002.12,0001.43
2024-04-15 09:48:00,SystemResetWarning,0819.0,5.01,000.00,026.2,025.4,000.0,034.7,028.0,006.3,0000.0,0007.08,0002.11,0001.41
2024-04-15 09:49:00,SystemResetWarning,0819.0,5.00,000.00,026.2,025.4,000.0,034.7,028.0,006.4,0000.0,0006.31,0002.06,0001.42
2024-04-15 09:50:00,SystemResetWarning,0819.1,5.00,000.00,026.2,025.4,000.0,034.7,028.0,006.4,0000.0,0006.60,0002.02,0001.41
2024-04-15 09:51:00,SystemResetWarning,0819.1,5.00,000.00,026.2,025.3,000.0,034.7,028.0,006.4,0000.0,0007.32,0002.02,0001.41
2024-04-15 09:52:00,SystemResetWarning,0819.1,5.00,000.00,026.2,025.3,000.0,034.7,028.0,006.4,0000.0,0007.47,0002.07,0001.41
2024-04-15 09:53:00,SystemResetWarning,0819.1,5.00,000.00,026.1,025.3,000.0,034.7,027.9,006.5,0000.0,0007.11,0002.07,0001.40
2024-04-15 09:54:00,SystemResetWarning,0819.1,5.00,000.00,026.1,025.3,000.0,034.6,027.9,006.4,0000.0,0006.12,0002.04,0001.40
2024-04-15 09:55:00,SystemResetWarning,0819.1,4.99,000.00,026.1,025.3,000.0,034.6,027.9,006.3,0000.0,0006.06,0002.04,0001.39
2024-04-15 09:56:00,SystemResetWarning,0819.1,5.00,000.00,026.1,025.3,000.0,034.6,027.9,006.3,0000.0,0006.05,0002.07,0001.40
2024-04-15 09:57:00,SystemResetWarning,0819.1,5.00,000.00,026.1,025.3,000.0,034.6,027.9,006.3,0000.0,0006.32,0002.10,0001.39
2024-04-15 09:58:00,SystemResetWarning,0819.1,5.00,000.00,026.1,025.3,000.0,034.6,027.9,006.4,0000.0,0007.75,0002.22,0001.40
2024-04-15 09:59:00,SystemResetWarning,0819.2,5.00,000.00,026.1,025.3,000.0,034.6,027.9,006.4,0000.0,0008.57,0002.27,0001.40
